Location: Unspecified
(35.7250°N, 0.0000°E)
Time: 05:23:37
(UTC+00:00)

Vanguard 2 - Pass Details

Date: 25 June 2019
Orbit: 553 x 2938 km, 32.9° (Epoch: 22 July)

Event Time Altitude Azimuth Distance (km) Brightness Sun altitude
Rises 08:44:18 0° 261° (W) 3,016 10.2 45.6°
Reaches altitude 10° 08:46:17 10° 259° (WSW) 2,252 9.6 46.0°
Maximum altitude 08:51:27 70° 176° (S) 1,038 9.1 47.1°
Drops below altitude 10° 08:59:54 10° 95° (E) 3,609 11.9 48.8°
Sets 09:03:52 0° 93° (E) 5,000 12.3 49.6°
